Regional Weather Roundup
Issued by NWS Sioux Falls, SD

Home | Current Version | Previous Version | Text Only | Print | Product List | Glossary On
Versions: 1 2 3 4 5 6 7 8 9 10 11 12 13 14 15 16 17 18 19 20 21 22 23 24 25 26 27 28 29 30 31 32 33 34 35 36 37 38 39 40 41 42 43 44 45 46 47 48 49 50
000
ASUS43 KFSD 290902
RWRFSD

WEATHER ROUNDUP FOR SE SOUTH DAKOTA/SW MINNESOTA/NW IOWA
NATIONAL WEATHER SERVICE SIOUX FALLS SD
400 AM CDT THU JUN 29 2017

NOTE: "FAIR" INDICATES FEW OR NO CLOUDS BELOW 12,000 FEET WITH NO
SIGNIFICANT WEATHER AND OR OBSTRUCTIONS TO VISIBILITY.


SDZ038>040-050-052>070-291000-
SOUTHEAST SOUTH DAKOTA

CITY           SKY/WX    TMP DP  RH WIND       PRES   REMARKS
BROOKINGS      PTCLDY    54  52  93 CALM      29.74F
CHAMBERLAIN    CLOUDY    65  47  50 NE3       29.73F
HURON          CLOUDY    54  49  83 N3        29.73F
MADISON        FAIR      55  55 100 N6        29.74F
MITCHELL       CLOUDY    57  50  77 SW6       29.73F
SIOUX FALLS    CLOUDY    57  57 100 CALM      29.72F
WINNER         FAIR      64  51  62 NE3       29.74R
YANKTON        CLOUDY    63  55  75 CALM      29.72F
$$

MNZ071-072-080-081-089-090-097-098-291000-
SOUTHWEST MINNESOTA

CITY           SKY/WX    TMP DP  RH WIND       PRES   REMARKS
FAIRMONT       CLEAR     62  59  90 W7        29.73S
JACKSON        CLEAR     59  55  88 CALM      29.74F
MARSHALL       CLEAR     60  58  92 N6        29.72F
MONTEVIDEO     CLEAR     61  57  88 N3        29.72F
PIPESTONE      CLOUDY    61  55  82 CALM      29.74S
REDWOOD FALLS  CLEAR     62  59  90 W8        29.72R
TRACY          CLEAR     60  59  94 NW5       29.73F
WINDOM         CLEAR     57  55  94 NW6       29.73S
WORTHINGTON    PTCLDY    60  57  89 N6        29.74F
$$

IAZ001>003-012>014-020>022-031-032-NEZ013-014-SDZ071-291000-
NORTHWEST IOWA

CITY           SKY/WX    TMP DP  RH WIND       PRES   REMARKS
DENISON        CLOUDY    66  64  94 CALM      29.76S
ESTHERVILLE    CLEAR     59  59 100 NW7       29.72S
LE MARS        CLEAR     61  59  94 SW6       29.76R
ORANGE CITY    CLEAR     64  61  88 E5        29.74S
SHELDON        PTCLDY    59  57  94 NE3       29.72F
SIOUX CITY     CLEAR     65  62  90 SE5       29.75R
SPENCER        CLEAR     56  56 100 NW3       29.73F FOG
STORM LAKE     CLEAR     64  61  88 E6        29.76R
$$

ABBREVIATIONS USED IN REMARKS
   TC - TEMPERATURE IN CELSIUS
  WCI - WIND CHILL INDEX
   HX - HEAT INDEX
  VSB - VISIBILITY




USA.gov is the U.S. government's official web portal to all federal, state and local government web resources and services.